Location: Bandys
(35.4750°N, 81.0830°W)
Time: 12:04:33
(UTC-04:00)

Daily predictions for brighter satellites

Satellite Brightness Start Highest point End
(mag) Time Altitude Azimuth Time Altitude Azimuth Time Altitude Azimuth
COSMOS 2455 2.8 20:53:59 10° SSW 20:59:55 68° ESE 21:05:54 10° NNE
Cosmos 1666 2.8 20:59:03 10° N 21:02:55 58° E 21:06:44 10° SSE
ERS-1 Rocket 3.7 20:58:44 10° SE 21:03:19 38° ENE 21:07:56 10° N
CZ-4 DEB 2.8 21:02:12 10° SSE 21:05:24 67° ENE 21:08:36 10° N
SL-16 R/B 4.5 21:02:37 10° WSW 21:07:33 30° WNW 21:12:31 10° N
BREEZE-M DEB (TANK) 4.5 21:03:56 10° WNW 21:08:12 54° SW 21:24:13 10° SE
Resurs 01 Rocket 4.1 21:07:29 10° SSW 21:10:56 22° W 21:14:24 10° NW
BREEZE-M DEB (TANK) 2.5 21:09:12 10° NW 21:11:40 39° NE 21:13:40 11° ESE
Envisat 4.0 21:17:05 10° SE 21:21:26 30° ENE 21:25:49 10° N
GEOS 3 Rocket 4.2 21:18:19 10° ESE 21:23:16 47° NE 21:28:16 10° NNW
Cosmos 407 Rocket 4.4 21:18:51 10° SSE 21:23:20 29° E 21:27:48 10° NE
CZ-2D R/B 4.2 21:19:46 10° S 21:23:33 49° W 21:27:21 10° NNW
Cosmos 1891 Rocket 4.4 21:17:33 10° N 21:23:39 80° E 21:29:39 10° S
Milstar 3 Cent rocket 4.1 21:19:53 10° W 21:27:38 27° SSW 21:32:31 10° SSE
FENGYUN 3A 4.1 21:26:17 10° S 21:31:35 64° WSW 21:36:57 10° NNW
Cosmos 1515 4.0 21:28:34 10° SSE 21:32:14 45° E 21:35:56 10° NNE
CZ-2C R/B 0.3 21:31:17 14° S 21:33:09 85° W 21:35:26 10° NNW
Cosmos 1602 Rocket 4.0 21:29:29 10° SSW 21:33:55 67° W 21:38:22 10° N
Cosmos 1825 Rocket 4.2 21:33:29 11° SSE 21:37:22 37° E 21:41:28 10° NNE
USA 186 3.7 21:40:13 10° SSW 21:42:25 21° W 21:44:31 10° NW
ALOS 3.6 21:40:14 10° SSW 21:44:35 39° W 21:48:57 10° NNW
Lacrosse 4 Rocket 1.2 21:42:13 10° SSW 21:46:14 76° ESE 21:50:19 10° NNE
Cosmos 1943 Rocket 3.9 21:43:25 10° NNE 21:47:16 19° ENE 21:50:21 13° E
Cosmos 1812 Rocket 3.5 21:43:50 10° N 21:48:16 89° W 21:52:17 13° S
Atlas Centaur 2 2.9 21:47:10 10° W 21:53:53 59° S 22:00:12 17° ESE
SeaSat 1 3.5 21:52:49 18° ESE 21:55:36 31° ENE 21:59:55 10° N
Cosmos 1943 3.3 21:50:34 10° SSW 21:56:13 79° WNW 22:01:57 10° NNE
Cosmos 1992 Rocket 3.9 21:51:29 10° NNW 21:56:43 78° ENE 22:00:17 21° SSE
H-2A R/B 2.3 21:53:23 13° S 21:57:09 69° WSW 22:01:32 10° NNW
ISS 0.1 21:55:55 10° NW 21:57:15 12° NNW 21:58:36 10° N
Meteor 2-12 Rocket 4.5 22:02:32 10° N 22:08:38 82° W 22:13:42 15° S
USA 81 4.0 22:08:48 10° N 22:14:06 75° E 22:17:13 25° SSE
Centaur D AC-28 3.4 22:12:29 10° WSW 22:14:52 16° SSW 22:15:06 16° S
CZ-4B R/B 3.5 22:10:24 10° NNE 22:15:32 66° ESE 22:19:12 20° S
Cosmos 1939 Rocket 3.6 22:12:46 18° S 22:15:40 52° W 22:19:43 10° NNW
CZ-4 R/B 4.3 22:11:38 10° NNE 22:16:26 44° E 22:18:13 32° SSE
Cosmos 1953 4.1 22:14:32 10° NNE 22:17:07 17° ENE 22:17:07 17° ENE
Terra 3.6 22:19:03 15° E 22:19:59 16° ENE 22:22:52 10° NNE
ARGOS 3.8 22:18:01 29° ESE 22:20:09 42° ENE 22:25:13 10° N
ATLAS 3B R/B 3.4 22:13:16 10° SW 22:20:54 65° WNW 22:28:26 10° NNE
Cosmos 1346 Rocket 2.8 22:19:42 23° SSW 22:22:02 77° W 22:25:59 10° N
Cosmos 2142 Rocket 4.4 22:15:54 10° N 22:22:11 81° E 22:25:54 26° S
SPOT 5 2.7 22:21:02 28° S 22:23:15 73° WSW 22:27:34 10° NNW
USA 245 4.3 22:21:16 31° SE 22:23:49 58° ENE 22:28:40 10° N
Cosmos 1842 3.7 22:25:38 41° E 22:25:41 41° E 22:29:23 10° NNE
Cosmos 1953 Rocket 3.6 22:23:11 22° SSW 22:26:01 79° W 22:30:28 10° N
CZ-4 SHROUD 4.0 22:25:30 35° SW 22:26:22 46° W 22:29:25 10° NNW
MetOp-B 4.1 22:24:19 30° SSE 22:27:03 86° ENE 22:32:26 10° NNW
PSLV R/B 3.9 22:26:38 38° SW 22:27:21 47° W 22:30:22 10° NNW
Cosmos-2242 4.0 22:23:47 10° NNE 22:27:41 30° ENE 22:28:01 30° E
Cosmos 1140 Rocket 3.9 22:26:32 37° SE 22:27:43 42° ESE 22:32:39 10° NNE
Cosmos 1634 Rocket 4.0 22:23:06 10° N 22:29:17 84° W 22:33:07 25° S
H-2A R/B 3.2 22:33:42 24° E 22:34:38 26° ENE 22:38:46 10° NNE
Meteor 1-21 4.2 22:31:59 25° S 22:35:32 82° E 22:41:23 10° N
Cosmos 1607 4.0 22:32:57 25° S 22:36:28 53° ESE 22:42:31 10° NE
Cosmos 676 Rocket 4.3 22:33:26 10° SSW 22:38:45 69° WNW 22:44:04 10° NNE
USA 234 4.1 22:37:09 20° E 22:41:09 41° NE 22:47:12 10° NNW
Cosmos 2369 Rocket 2.6 22:36:29 10° NNW 22:42:00 55° WSW 22:44:34 30° S
SPOT 1/Viking Rocket 3.4 22:41:55 43° SSE 22:43:41 88° ENE 22:48:51 10° NNW
YAOGAN 6 2.7 22:43:54 64° SSW 22:44:19 72° W 22:48:03 10° NNW
Cosmos 614 Rocket 4.5 22:48:02 39° E 22:48:02 39° E 22:52:38 10° NNE
Cosmos 2279 Rocket 3.9 22:41:35 10° N 22:47:52 78° E 22:50:14 41° SSE
SL-08 RB Rocket 3.6 22:51:27 63° ESE 22:52:00 71° ENE 22:56:30 10° N
NOAA 11 4.1 22:51:03 49° SSE 22:52:31 78° ENE 22:57:57 10° N
Cosmos 1766 3.3 22:50:58 10° N 22:54:59 72° W 22:55:14 69° SW
CARTOSAT-1 4.2 23:02:00 42° ENE 23:02:00 42° ENE 23:05:49 10° N
CZ-4C R/B 3.2 23:03:35 28° ENE 23:03:35 28° ENE 23:06:57 10° NE
Cosmos 1758 3.6 23:02:00 10° N 23:05:36 60° NE 23:05:36 60° NE
USA 238 DEB 4.0 23:01:27 10° SW 23:08:32 70° WNW 23:15:36 10° NNE
USA 238 4.0 23:01:33 10° SW 23:08:37 70° WNW 23:15:41 10° NNE
SL-27 R/B 4.0 23:10:37 30° WNW 23:10:47 31° WNW 23:13:48 10° N
DMSP B5D2-2 3.9 23:12:46 10° NNE 23:18:02 71° ESE 23:18:08 71° ESE
IGS 5A 4.1 23:19:53 48° NNE 23:19:53 48° NNE 23:23:11 10° N
Cosmos 1805 3.9 23:17:25 10° N 23:20:29 52° N 23:20:29 52° N
COSMOS 2487 4.5 23:24:52 24° NNE 23:24:52 24° NNE 23:26:27 10° NNE
COSMOS 2406 3.7 23:21:23 26° SW 23:24:30 58° WNW 23:30:09 10° NNE
Cosmos 1943 Rocket 2.4 23:25:55 10° NNW 23:31:20 55° WSW 23:31:53 53° SW
Cosmos 2082 Rocket 4.4 23:34:49 12° ENE 23:34:49 12° ENE 23:35:22 10° ENE
SeaSat 1 3.7 23:32:37 29° WSW 23:33:02 29° WSW 23:37:20 10° NW
Cosmos 1842 Rocket 4.0 23:29:31 10° N 23:33:08 59° N 23:33:08 59° N
Cosmos 2084 4.3 23:30:24 10° NW 23:33:35 45° WNW 23:33:35 45° WNW
Cosmos 1656 Rocket 3.6 23:32:30 10° NNW 23:38:12 77° ENE 23:38:15 77° ENE
Landsat 7 4.5 23:41:38 46° W 23:41:38 46° W 23:46:04 10° NNW
NOSS 3-2 (C) 3.4 23:43:08 68° E 23:43:08 68° E 23:49:16 10° NE
Atlas Centaur 2 3.4 23:36:12 10° W 23:42:49 43° SSW 23:42:49 43° SSW
Cosmos 2208 Rocket 4.1 23:38:31 10° NNW 23:43:24 68° W 23:43:24 68° W
Cosmos 1092 Rocket 4.1 23:51:45 61° SW 23:52:42 70° W 23:58:59 10° N
Cosmos 1953 4.3 23:50:18 10° NNW 23:52:53 24° WNW 23:52:53 24° WNW
